Location: Nairn
(57.5833°N, 3.8667°W)
Time: 19:19:45
(UTC+00:00)

Cosmos 1603 - Pass Details

Date: 07 August 2020
Orbit: 831 x 860 km, 71.0° (Epoch: 23 September)

Event Time Altitude Azimuth Distance (km) Brightness Sun altitude
Rises 02:34:19 0° 322° (NW) 3,450 7.2 -11.1°
Reaches altitude 10° 02:36:49 10° 325° (NW) 2,510 6.5 -11.0°
Maximum altitude 02:42:35 73° 50° (NE) 904 4.1 -10.5°
Drops below altitude 10° 02:48:19 10° 135° (SE) 2,487 6.1 -10.1°
Sets 02:50:46 0° 138° (SE) 3,416 6.7 -9.9°
